,,,PA_Meas_PMT16A,,PR_Meas_QMR101_102,,RH_Meas_QMH101,,SR_Meas_QMS101,,TA_Meas_QMH101,,GenWind,,GenWind,
date,time,status,PA,status,PR,status,RH,status,SR,status,TA,status,DirAvg,status,SpdAvg,
2009-11-12, 00:00:04,VALID,1008.18,VALID,0,VALID,73.4284,VALID,0,VALID,24.2378,VALID,183,VALID,1.00977,
2009-11-12, 00:01:04,VALID,1008.17,VALID,0,VALID,73.4284,VALID,0,VALID,24.2378,VALID,167,VALID,0.738281,
2009-11-12, 00:02:04,VALID,1008.14,VALID,0,VALID,73.4284,VALID,0,VALID,24.2591,VALID,195,VALID,0.920313,
2009-11-12, 00:03:04,VALID,1008.12,VALID,0,VALID,73.4513,VALID,0,VALID,24.2591,VALID,197,VALID,0.333203,
2009-11-12, 00:04:04,VALID,1008.09,VALID,0,VALID,73.4894,VALID,0,VALID,24.2378,VALID,199,VALID,0.341797,
2009-11-12, 00:05:04,VALID,1008.07,VALID,0,VALID,73.5275,VALID,0,VALID,24.2396,VALID,229,VALID,0.846484,
2009-11-12, 00:06:04,VALID,1008.07,VALID,0,VALID,73.5428,VALID,0,VALID,24.2183,VALID,195,VALID,0.745313,
2009-11-12, 00:07:04,VALID,1008.05,VALID,0,VALID,73.5428,VALID,0.105969,VALID,24.2183,VALID,213,VALID,0.845312,
2009-11-12, 00:08:04,VALID,1008,VALID,0,VALID,73.5351,VALID,0,VALID,24.2396,VALID,195,VALID,0.933203,
2009-11-12, 00:09:04,VALID,1007.99,VALID,0,VALID,73.5504,VALID,0,VALID,24.2396,VALID,209,VALID,1.12891,
2009-11-12, 00:10:04,VALID,1007.97,VALID,0,VALID,73.558,VALID,0,VALID,24.2396,VALID,221,VALID,0.430859,
2009-11-12, 00:11:04,VALID,1007.93,VALID,0,VALID,73.6114,VALID,0,VALID,24.2183,VALID,237,VALID,0.376172,
2009-11-12, 00:12:04,VALID,1007.95,VALID,0,VALID,73.6648,VALID,0,VALID,24.2396,VALID,237,VALID,0.782812,
2009-11-12, 00:13:04,VALID,1007.94,VALID,0,VALID,73.68,VALID,0,VALID,24.2183,VALID,193,VALID,0.446875,
2009-11-12, 00:14:04,VALID,1007.91,VALID,0,VALID,73.6877,VALID,0,VALID,24.2396,VALID,204,VALID,0.679297,
2009-11-12, 00:15:04,VALID,1007.92,VALID,0,VALID,73.7105,VALID,0,VALID,24.2396,VALID,216,VALID,0.792969,
2009-11-12, 00:16:04,VALID,1007.91,VALID,0,VALID,73.7105,VALID,0,VALID,24.2183,VALID,192,VALID,0.539453,
2009-11-12, 00:17:04,VALID,1007.89,VALID,0,VALID,73.7258,VALID,0,VALID,24.2396,VALID,192,VALID,0,
2009-11-12, 00:18:04,VALID,1007.89,VALID,0,VALID,73.7715,VALID,0,VALID,24.2396,VALID,301,VALID,0.395312,
2009-11-12, 00:19:04,VALID,1007.83,VALID,0,VALID,73.7715,VALID,0,VALID,24.2396,VALID,265,VALID,0.303125,
2009-11-12, 00:20:04,VALID,1007.84,VALID,0,VALID,73.8097,VALID,0,VALID,24.2183,VALID,247,VALID,0.675,
2009-11-12, 00:21:04,VALID,1007.84,VALID,0,VALID,73.8173,VALID,0,VALID,24.2396,VALID,246,VALID,0.2875,
2009-11-12, 00:22:04,VALID,1007.84,VALID,0,VALID,73.8097,VALID,0,VALID,24.2591,VALID,287,VALID,0.554297,
2009-11-12, 00:23:04,VALID,1007.85,VALID,0,VALID,73.7944,VALID,0,VALID,24.2591,VALID,231,VALID,0.457422,
2009-11-12, 00:24:04,VALID,1007.86,VALID,0,VALID,73.7639,VALID,0,VALID,24.2378,VALID,203,VALID,0.438672,
2009-11-12, 00:25:04,VALID,1007.84,VALID,0,VALID,73.7792,VALID,0,VALID,24.2591,VALID,203,VALID,0.280469,
2009-11-12, 00:26:04,VALID,1007.88,VALID,0,VALID,73.7715,VALID,0,VALID,24.2378,VALID,184,VALID,0.420703,
2009-11-12, 00:27:04,VALID,1007.88,VALID,0,VALID,73.7639,VALID,0.105969,VALID,24.2183,VALID,182,VALID,0.183594,
2009-11-12, 00:28:04,VALID,1007.88,VALID,0,VALID,73.802,VALID,0.105969,VALID,24.2378,VALID,182,VALID,0.0015625,
2009-11-12, 00:29:04,VALID,1007.86,VALID,0,VALID,73.8097,VALID,0,VALID,24.2378,VALID,182,VALID,0,
2009-11-12, 00:30:04,VALID,1007.86,VALID,0,VALID,73.8402,VALID,0.105969,VALID,24.2396,VALID,182,VALID,0,
2009-11-12, 00:31:04,VALID,1007.85,VALID,0,VALID,73.863,VALID,0,VALID,24.2183,VALID,182,VALID,0,
2009-11-12, 00:32:04,VALID,1007.83,VALID,0,VALID,73.9012,VALID,0,VALID,24.2202,VALID,182,VALID,0.378516,
2009-11-12, 00:33:04,VALID,1007.81,VALID,0,VALID,73.9469,VALID,0,VALID,24.1988,VALID,164,VALID,0.673437,
2009-11-12, 00:34:04,VALID,1007.83,VALID,0,VALID,73.9546,VALID,0,VALID,24.2202,VALID,192,VALID,0.856641,
2009-11-12, 00:35:04,VALID,1007.82,VALID,0,VALID,73.9622,VALID,0,VALID,24.2202,VALID,181,VALID,0.539844,
2009-11-12, 00:36:04,VALID,1007.8,VALID,0,VALID,74.0003,VALID,0.105969,VALID,24.1988,VALID,181,VALID,0.411719,
2009-11-12, 00:37:04,VALID,1007.78,VALID,0,VALID,74.0308,VALID,0,VALID,24.1793,VALID,181,VALID,0.342578,
2009-11-12, 00:38:04,VALID,1007.75,VALID,0,VALID,74.0613,VALID,0,VALID,24.1793,VALID,181,VALID,0.128516,
2009-11-12, 00:39:04,VALID,1007.73,VALID,0,VALID,74.0918,VALID,0,VALID,24.1599,VALID,183,VALID,0.420312,
2009-11-12, 00:40:04,VALID,1007.74,VALID,0,VALID,74.0994,VALID,0,VALID,24.1599,VALID,183,VALID,0.03125,
2009-11-12, 00:41:04,VALID,1007.7,VALID,0,VALID,74.1452,VALID,0,VALID,24.1812,VALID,183,VALID,0.116797,
2009-11-12, 00:42:04,VALID,1007.72,VALID,0,VALID,74.1528,VALID,0,VALID,24.1812,VALID,179,VALID,0.323047,
2009-11-12, 00:43:04,VALID,1007.72,VALID,0,VALID,74.1757,VALID,0,VALID,24.1599,VALID,173,VALID,0.466016,
2009-11-12, 00:44:04,VALID,1007.71,VALID,0,VALID,74.191,VALID,0,VALID,24.1599,VALID,173,VALID,0.546094,
2009-11-12, 00:45:04,VALID,1007.68,VALID,0,VALID,74.2291,VALID,0.105969,VALID,24.1599,VALID,173,VALID,0.528125,
2009-11-12, 00:46:04,VALID,1007.68,VALID,0,VALID,74.252,VALID,0,VALID,24.1209,VALID,173,VALID,0.482812,
2009-11-12, 00:47:04,VALID,1007.69,VALID,0,VALID,74.2672,VALID,0,VALID,24.1617,VALID,175,VALID,0.663672,
2009-11-12, 00:48:04,VALID,1007.68,VALID,0,VALID,74.2825,VALID,0,VALID,24.1422,VALID,177,VALID,0.692578,
2009-11-12, 00:49:04,VALID,1007.65,VALID,0,VALID,74.3358,VALID,0,VALID,24.1404,VALID,178,VALID,0.496094,
2009-11-12, 00:50:04,VALID,1007.64,VALID,0,VALID,74.3435,VALID,0,VALID,24.1422,VALID,178,VALID,0.452344,
2009-11-12, 00:51:04,VALID,1007.63,VALID,0,VALID,74.3587,VALID,0.105969,VALID,24.1404,VALID,173,VALID,0.640234,
2009-11-12, 00:52:04,VALID,1007.62,VALID,0,VALID,74.3663,VALID,0,VALID,24.1617,VALID,181,VALID,0.687109,
2009-11-12, 00:53:04,VALID,1007.61,VALID,0,VALID,74.3663,VALID,0.105969,VALID,24.1617,VALID,179,VALID,0.586328,
2009-11-12, 00:54:04,VALID,1007.61,VALID,0,VALID,74.4121,VALID,0,VALID,24.1599,VALID,181,VALID,0.832812,
2009-11-12, 00:55:04,VALID,1007.62,VALID,0,VALID,74.435,VALID,0,VALID,24.1617,VALID,186,VALID,1.11875,
2009-11-12, 00:56:04,VALID,1007.61,VALID,0,VALID,74.4197,VALID,0.105969,VALID,24.1404,VALID,179,VALID,0.761719,
2009-11-12, 00:57:04,VALID,1007.6,VALID,0,VALID,74.4502,VALID,0.105969,VALID,24.1599,VALID,169,VALID,0.686719,
2009-11-12, 00:58:04,VALID,1007.58,VALID,0,VALID,74.4731,VALID,0,VALID,24.1599,VALID,162,VALID,0.936719,
2009-11-12, 00:59:04,VALID,1007.6,VALID,0,VALID,74.4731,VALID,0,VALID,24.1404,VALID,163,VALID,0.847266,
2009-11-12, 01:00:04,VALID,1007.63,VALID,0,VALID,74.496,VALID,0.105969,VALID,24.1617,VALID,162,VALID,0.949609,
2009-11-12, 01:01:04,VALID,1007.61,VALID,0,VALID,74.5036,VALID,0,VALID,24.1404,VALID,161,VALID,0.500391,
2009-11-12, 01:02:04,VALID,1007.61,VALID,0,VALID,74.5036,VALID,0.105969,VALID,24.1617,VALID,161,VALID,0.745703,
2009-11-12, 01:03:04,VALID,1007.62,VALID,0,VALID,74.5112,VALID,0,VALID,24.1617,VALID,159,VALID,0.475391,
2009-11-12, 01:04:04,VALID,1007.62,VALID,0,VALID,74.5341,VALID,0.105969,VALID,24.1812,VALID,169,VALID,0.535547,
2009-11-12, 01:05:04,VALID,1007.62,VALID,0,VALID,74.5494,VALID,0.105969,VALID,24.1404,VALID,155,VALID,0.589844,
2009-11-12, 01:06:04,VALID,1007.64,VALID,0,VALID,74.557,VALID,0.105969,VALID,24.1599,VALID,180,VALID,0.892187,
2009-11-12, 01:07:04,VALID,1007.67,VALID,0,VALID,74.5494,VALID,0,VALID,24.1812,VALID,162,VALID,0.625391,
2009-11-12, 01:08:04,VALID,1007.67,VALID,0,VALID,74.5799,VALID,0,VALID,24.1599,VALID,175,VALID,0.741797,
2009-11-12, 01:09:04,VALID,1007.62,VALID,0,VALID,74.557,VALID,0.105969,VALID,24.1599,VALID,172,VALID,1.04453,
2009-11-12, 01:10:04,VALID,1007.61,VALID,0,VALID,74.5494,VALID,0,VALID,24.2007,VALID,150,VALID,0.485547,
2009-11-12, 01:11:04,VALID,1007.61,VALID,0,VALID,74.5722,VALID,0.105969,VALID,24.1793,VALID,172,VALID,0.635547,
2009-11-12, 01:12:04,VALID,1007.6,VALID,0,VALID,74.5417,VALID,0,VALID,24.1793,VALID,180,VALID,0.847266,
2009-11-12, 01:13:04,VALID,1007.56,VALID,0,VALID,74.5265,VALID,0.105969,VALID,24.1599,VALID,174,VALID,0.251953,
2009-11-12, 01:14:04,VALID,1007.6,VALID,0,VALID,74.496,VALID,0,VALID,24.1793,VALID,140,VALID,0.544922,
2009-11-12, 01:15:04,VALID,1007.58,VALID,0,VALID,74.3511,VALID,0.105969,VALID,24.1988,VALID,119,VALID,0.498047,
2009-11-12, 01:16:04,VALID,1007.59,VALID,0,VALID,74.0384,VALID,0,VALID,24.1988,VALID,119,VALID,0.403125,
2009-11-12, 01:17:04,VALID,1007.59,VALID,0,VALID,74.0613,VALID,0,VALID,24.1793,VALID,123,VALID,0.949609,
2009-11-12, 01:18:04,VALID,1007.58,VALID,0,VALID,74.0613,VALID,0,VALID,24.1988,VALID,133,VALID,0.485938,
2009-11-12, 01:19:04,VALID,1007.58,VALID,0,VALID,74.0994,VALID,0.105969,VALID,24.2183,VALID,122,VALID,0.546094,
2009-11-12, 01:20:04,VALID,1007.58,VALID,0,VALID,74.1147,VALID,0,VALID,24.2378,VALID,120,VALID,0.404297,
2009-11-12, 01:21:04,VALID,1007.59,VALID,0,VALID,74.1452,VALID,0.105969,VALID,24.2183,VALID,136,VALID,0.604688,
2009-11-12, 01:22:04,VALID,1007.6,VALID,0,VALID,74.2138,VALID,0,VALID,24.2396,VALID,114,VALID,0.780859,
2009-11-12, 01:23:04,VALID,1007.59,VALID,0,VALID,74.2367,VALID,0,VALID,24.2202,VALID,147,VALID,1.18242,
2009-11-12, 01:24:04,VALID,1007.59,VALID,0,VALID,74.2596,VALID,0.105969,VALID,24.1988,VALID,131,VALID,0.496875,
2009-11-12, 01:25:04,VALID,1007.58,VALID,0,VALID,74.2748,VALID,0.105969,VALID,24.1988,VALID,137,VALID,0.817578,
2009-11-12, 01:26:04,VALID,1007.6,VALID,0,VALID,74.313,VALID,0,VALID,24.1988,VALID,134,VALID,0.573438,
2009-11-12, 01:27:04,VALID,1007.61,VALID,0,VALID,74.4274,VALID,0.105969,VALID,24.1988,VALID,153,VALID,0.420312,
2009-11-12, 01:28:04,VALID,1007.61,VALID,0,VALID,74.7095,VALID,0.105969,VALID,24.1988,VALID,151,VALID,0.371484,
2009-11-12, 01:29:04,VALID,1007.59,VALID,0,VALID,74.74,VALID,0.105969,VALID,24.1793,VALID,121,VALID,0.496094,
2009-11-12, 01:30:04,VALID,1007.62,VALID,0,VALID,74.7553,VALID,0,VALID,24.2202,VALID,127,VALID,0.282813,
2009-11-12, 01:31:04,VALID,1007.6,VALID,0,VALID,74.7781,VALID,0.105969,VALID,24.1793,VALID,127,VALID,0.280078,
2009-11-12, 01:32:04,VALID,1007.59,VALID,0,VALID,74.8163,VALID,0.105969,VALID,24.1599,VALID,124,VALID,0.696094,
2009-11-12, 01:33:04,VALID,1007.59,VALID,0,VALID,74.8086,VALID,0,VALID,24.1599,VALID,129,VALID,0.670313,
2009-11-12, 01:34:04,VALID,1007.58,VALID,0,VALID,74.8468,VALID,0,VALID,24.1812,VALID,153,VALID,0.930469,
2009-11-12, 01:35:04,VALID,1007.58,VALID,0,VALID,74.862,VALID,0,VALID,24.1812,VALID,155,VALID,0.761719,
2009-11-12, 01:36:04,VALID,1007.6,VALID,0,VALID,74.8544,VALID,0,VALID,24.1812,VALID,142,VALID,0.845312,
2009-11-12, 01:37:04,VALID,1007.59,VALID,0,VALID,74.8849,VALID,0,VALID,24.1617,VALID,132,VALID,0.974219,
2009-11-12, 01:38:04,VALID,1007.59,VALID,0,VALID,74.8773,VALID,0,VALID,24.1617,VALID,156,VALID,0.563672,
2009-11-12, 01:39:04,VALID,1007.62,VALID,0,VALID,74.9001,VALID,0,VALID,24.1599,VALID,125,VALID,1.06289,
2009-11-12, 01:40:04,VALID,1007.61,VALID,0,VALID,74.9154,VALID,0,VALID,24.1617,VALID,104,VALID,0.55,
2009-11-12, 01:41:04,VALID,1007.61,VALID,0,VALID,74.923,VALID,0.105969,VALID,24.1812,VALID,119,VALID,0.788281,
2009-11-12, 01:42:04,VALID,1007.59,VALID,0,VALID,74.9535,VALID,0,VALID,24.1617,VALID,127,VALID,0.864453,
2009-11-12, 01:43:04,VALID,1007.59,VALID,0,VALID,74.9764,VALID,0,VALID,24.1617,VALID,98,VALID,0.525781,
2009-11-12, 01:44:04,VALID,1007.59,VALID,0,VALID,74.984,VALID,0.105969,VALID,24.1617,VALID,100,VALID,0.603125,
2009-11-12, 01:45:04,VALID,1007.57,VALID,0,VALID,75.0069,VALID,0,VALID,24.1404,VALID,99,VALID,0.782812,
2009-11-12, 01:46:04,VALID,1007.56,VALID,0,VALID,75.0222,VALID,0,VALID,24.1422,VALID,96,VALID,0.805078,
2009-11-12, 01:47:04,VALID,1007.54,VALID,0,VALID,75.0145,VALID,0.105969,VALID,24.1617,VALID,116,VALID,0.998828,
2009-11-12, 01:48:04,VALID,1007.53,VALID,0,VALID,75.0298,VALID,0,VALID,24.1422,VALID,129,VALID,0.616797,
2009-11-12, 01:49:04,VALID,1007.51,VALID,0,VALID,75.0527,VALID,0,VALID,24.1422,VALID,112,VALID,0.896484,
2009-11-12, 01:50:04,VALID,1007.48,VALID,0,VALID,75.0679,VALID,0,VALID,24.1227,VALID,99,VALID,0.642578,
2009-11-12, 01:51:04,VALID,1007.51,VALID,0,VALID,75.0832,VALID,0,VALID,24.1227,VALID,99,VALID,0.655859,
2009-11-12, 01:52:04,VALID,1007.49,VALID,0,VALID,75.0908,VALID,0,VALID,24.1032,VALID,96,VALID,0.517187,
2009-11-12, 01:53:04,VALID,1007.44,VALID,0,VALID,75.1213,VALID,0.105969,VALID,24.1014,VALID,96,VALID,0.3,
2009-11-12, 01:54:04,VALID,1007.45,VALID,0,VALID,75.1442,VALID,0,VALID,24.0819,VALID,105,VALID,0.541406,
2009-11-12, 01:55:04,VALID,1007.44,VALID,0,VALID,75.1671,VALID,0,VALID,24.0837,VALID,100,VALID,0.721875,
2009-11-12, 01:56:04,VALID,1007.41,VALID,0,VALID,75.1442,VALID,0,VALID,24.0624,VALID,93,VALID,0.502344,
2009-11-12, 01:57:04,VALID,1007.43,VALID,0,VALID,75.1899,VALID,0,VALID,24.0819,VALID,101,VALID,0.5625,
2009-11-12, 01:58:04,VALID,1007.42,VALID,0,VALID,75.2052,VALID,0.105969,VALID,24.0643,VALID,83,VALID,0.738281,
2009-11-12, 01:59:04,VALID,1007.42,VALID,0,VALID,75.2281,VALID,0.105969,VALID,24.0624,VALID,96,VALID,0.854688,
2009-11-12, 02:00:04,VALID,1007.41,VALID,0,VALID,75.2433,VALID,0.105969,VALID,24.0643,VALID,93,VALID,0.959375,
2009-11-12, 02:01:04,VALID,1007.41,VALID,0,VALID,75.2433,VALID,0,VALID,24.0429,VALID,73,VALID,0.592578,
2009-11-12, 02:02:04,VALID,1007.39,VALID,0,VALID,75.2814,VALID,0,VALID,24.0643,VALID,85,VALID,0.632813,
2009-11-12, 02:03:04,VALID,1007.41,VALID,0,VALID,75.3043,VALID,0.105969,VALID,24.0429,VALID,85,VALID,0.493359,
2009-11-12, 02:04:04,VALID,1007.4,VALID,0,VALID,75.3043,VALID,0,VALID,24.0448,VALID,80,VALID,0.710547,
2009-11-12, 02:05:04,VALID,1007.4,VALID,0,VALID,75.3424,VALID,0,VALID,24.0253,VALID,70,VALID,1.01094,
2009-11-12, 02:06:04,VALID,1007.39,VALID,0,VALID,75.3501,VALID,0,VALID,24.0058,VALID,94,VALID,1.01758,
2009-11-12, 02:07:04,VALID,1007.42,VALID,0,VALID,75.3806,VALID,0,VALID,24.0058,VALID,74,VALID,1.04922,
2009-11-12, 02:08:04,VALID,1007.38,VALID,0,VALID,75.4035,VALID,0,VALID,23.9845,VALID,74,VALID,1.00156,
2009-11-12, 02:09:04,VALID,1007.37,VALID,0,VALID,75.4187,VALID,0,VALID,23.9455,VALID,87,VALID,0.821484,
2009-11-12, 02:10:04,VALID,1007.35,VALID,0,VALID,75.434,VALID,0.105969,VALID,23.9455,VALID,85,VALID,1.08672,
2009-11-12, 02:11:04,VALID,1007.34,VALID,0,VALID,75.4568,VALID,0,VALID,23.9455,VALID,93,VALID,0.707812,
2009-11-12, 02:12:04,VALID,1007.28,VALID,0,VALID,75.4721,VALID,0.105969,VALID,23.9473,VALID,63,VALID,0.472266,
2009-11-12, 02:13:04,VALID,1007.29,VALID,0,VALID,75.4797,VALID,0.105969,VALID,23.926,VALID,63,VALID,0.490234,
2009-11-12, 02:14:04,VALID,1007.25,VALID,0,VALID,75.5102,VALID,0,VALID,23.9278,VALID,69,VALID,0.573828,
2009-11-12, 02:15:04,VALID,1007.25,VALID,0,VALID,75.5331,VALID,0,VALID,23.9084,VALID,88,VALID,0.785547,
2009-11-12, 02:16:04,VALID,1007.23,VALID,0,VALID,75.5483,VALID,0,VALID,23.8889,VALID,78,VALID,0.388281,
2009-11-12, 02:17:04,VALID,1007.21,VALID,0,VALID,75.5788,VALID,0.105969,VALID,23.8694,VALID,66,VALID,1.08477,
2009-11-12, 02:18:04,VALID,1007.19,VALID,0,VALID,75.5865,VALID,0.105969,VALID,23.8481,VALID,66,VALID,0.686719,
2009-11-12, 02:19:04,VALID,1007.18,VALID,0,VALID,75.6017,VALID,0,VALID,23.8694,VALID,70,VALID,0.610156,
2009-11-12, 02:20:04,VALID,1007.16,VALID,0,VALID,75.617,VALID,0,VALID,23.8499,VALID,88,VALID,0.9,
2009-11-12, 02:21:04,VALID,1007.16,VALID,0,VALID,75.6398,VALID,0.105969,VALID,23.8091,VALID,72,VALID,0.626953,
2009-11-12, 02:22:04,VALID,1007.14,VALID,0,VALID,75.6627,VALID,0.105969,VALID,23.8304,VALID,63,VALID,0.739062,
2009-11-12, 02:23:04,VALID,1007.13,VALID,0,VALID,75.6627,VALID,0,VALID,23.8109,VALID,80,VALID,0.364453,
2009-11-12, 02:24:04,VALID,1007.14,VALID,0,VALID,75.6932,VALID,0.105969,VALID,23.7896,VALID,70,VALID,0.854688,
2009-11-12, 02:25:04,VALID,1007.11,VALID,0,VALID,75.7009,VALID,0,VALID,23.7914,VALID,88,VALID,0.808203,
2009-11-12, 02:26:04,VALID,1007.11,VALID,0,VALID,75.7161,VALID,0,VALID,23.8109,VALID,88,VALID,0.613281,
2009-11-12, 02:27:04,VALID,1007.09,VALID,0,VALID,75.7542,VALID,0,VALID,23.772,VALID,94,VALID,0.826563,
2009-11-12, 02:28:04,VALID,1007.1,VALID,0,VALID,75.7466,VALID,0.105969,VALID,23.772,VALID,100,VALID,0.500781,
2009-11-12, 02:29:04,VALID,1007.07,VALID,0,VALID,75.8,VALID,0,VALID,23.772,VALID,96,VALID,0.471094,
2009-11-12, 02:30:04,VALID,1007.05,VALID,0,VALID,75.8076,VALID,0.105969,VALID,23.772,VALID,96,VALID,0.175391,
2009-11-12, 02:31:05,VALID,1007.02,VALID,0,VALID,75.8229,VALID,0.105969,VALID,23.7507,VALID,100,VALID,0.458984,
2009-11-12, 02:32:05,VALID,1007,VALID,0,VALID,75.8152,VALID,0.105969,VALID,23.7507,VALID,107,VALID,0.832812,
2009-11-12, 02:33:05,VALID,1007,VALID,0,VALID,75.8229,VALID,0,VALID,23.7312,VALID,107,VALID,0.660547,
2009-11-12, 02:34:05,VALID,1006.98,VALID,0,VALID,75.8534,VALID,0.105969,VALID,23.772,VALID,107,VALID,0.36875,
2009-11-12, 02:35:05,VALID,1006.97,VALID,0,VALID,75.8762,VALID,0.105969,VALID,23.7312,VALID,107,VALID,0.386328,
2009-11-12, 02:36:05,VALID,1006.95,VALID,0,VALID,75.8915,VALID,0.105969,VALID,23.7312,VALID,107,VALID,0.443359,
2009-11-12, 02:37:05,VALID,1006.93,VALID,0,VALID,75.8839,VALID,0,VALID,23.7525,VALID,118,VALID,0.680469,
2009-11-12, 02:38:05,VALID,1006.91,VALID,0,VALID,75.922,VALID,0.105969,VALID,23.7117,VALID,115,VALID,0.594922,
2009-11-12, 02:39:05,VALID,1006.9,VALID,0,VALID,75.922,VALID,0,VALID,23.7525,VALID,92,VALID,0.770703,
2009-11-12, 02:40:05,VALID,1006.9,VALID,0,VALID,75.9449,VALID,0,VALID,23.733,VALID,116,VALID,0.838281,
2009-11-12, 02:41:05,VALID,1006.9,VALID,0,VALID,75.9449,VALID,0,VALID,23.733,VALID,107,VALID,0.867578,
2009-11-12, 02:42:05,VALID,1006.89,VALID,0,VALID,75.9601,VALID,0.105969,VALID,23.7135,VALID,148,VALID,0.674609,
2009-11-12, 02:43:05,VALID,1006.88,VALID,0,VALID,76.0059,VALID,0.105969,VALID,23.6727,VALID,141,VALID,1.01719,
2009-11-12, 02:44:05,VALID,1006.91,VALID,0,VALID,76.0059,VALID,0,VALID,23.694,VALID,130,VALID,0.446484,
2009-11-12, 02:45:05,VALID,1006.91,VALID,0,VALID,75.9983,VALID,0,VALID,23.6727,VALID,133,VALID,0.702734,
2009-11-12, 02:46:05,VALID,1006.92,VALID,0,VALID,75.983,VALID,0.105969,VALID,23.6532,VALID,98,VALID,0.598828,
2009-11-12, 02:47:05,VALID,1006.9,VALID,0,VALID,76.0135,VALID,0,VALID,23.6532,VALID,106,VALID,0.225391,
2009-11-12, 02:48:05,VALID,1006.91,VALID,0,VALID,76.0135,VALID,0.105969,VALID,23.6745,VALID,106,VALID,0.723047,
2009-11-12, 02:49:05,VALID,1006.91,VALID,0,VALID,76.0364,VALID,0,VALID,23.6338,VALID,137,VALID,1.14414,
2009-11-12, 02:50:05,VALID,1006.88,VALID,0,VALID,76.0516,VALID,0,VALID,23.6532,VALID,126,VALID,0.896094,
2009-11-12, 02:51:05,VALID,1006.88,VALID,0,VALID,76.0745,VALID,0.105969,VALID,23.6338,VALID,119,VALID,0.54375,
2009-11-12, 02:52:05,VALID,1006.89,VALID,0,VALID,76.0821,VALID,0,VALID,23.655,VALID,123,VALID,0.847656,
2009-11-12, 02:53:05,VALID,1006.89,VALID,0,VALID,76.0898,VALID,0,VALID,23.6356,VALID,135,VALID,0.985937,
2009-11-12, 02:54:05,VALID,1006.91,VALID,0,VALID,76.105,VALID,0,VALID,23.6356,VALID,117,VALID,0.700781,
2009-11-12, 02:55:05,VALID,1006.9,VALID,0,VALID,76.0898,VALID,0.105969,VALID,23.6143,VALID,108,VALID,0.889453,
2009-11-12, 02:56:05,VALID,1006.92,VALID,0,VALID,76.1126,VALID,0.105969,VALID,23.6161,VALID,128,VALID,0.666406,
2009-11-12, 02:57:05,VALID,1006.91,VALID,0,VALID,76.1279,VALID,0,VALID,23.5948,VALID,131,VALID,0.747266,
2009-11-12, 02:58:05,VALID,1006.94,VALID,0,VALID,76.1584,VALID,0.105969,VALID,23.6161,VALID,131,VALID,0.639453,
2009-11-12, 02:59:05,VALID,1006.94,VALID,0,VALID,76.1432,VALID,0,VALID,23.6161,VALID,130,VALID,0.175781,
2009-11-12, 03:00:05,VALID,1006.93,VALID,0,VALID,76.1584,VALID,0,VALID,23.6179,VALID,124,VALID,0.429688,
2009-11-12, 03:01:05,VALID,1006.92,VALID,0,VALID,76.1737,VALID,0.105969,VALID,23.5753,VALID,127,VALID,0.691797,
2009-11-12, 03:02:05,VALID,1006.96,VALID,0,VALID,76.1889,VALID,0.105969,VALID,23.5966,VALID,127,VALID,0.364453,
2009-11-12, 03:03:05,VALID,1007.01,VALID,0,VALID,76.2042,VALID,0.105969,VALID,23.5966,VALID,127,VALID,0.946094,
2009-11-12, 03:04:05,VALID,1007,VALID,0,VALID,76.2118,VALID,0.105969,VALID,23.5966,VALID,140,VALID,1.00391,
2009-11-12, 03:05:05,VALID,1007.03,VALID,0,VALID,76.227,VALID,0.105969,VALID,23.5966,VALID,127,VALID,1.02578,
2009-11-12, 03:06:05,VALID,1007.03,VALID,0,VALID,76.2194,VALID,0,VALID,23.5966,VALID,119,VALID,0.721875,
2009-11-12, 03:07:05,VALID,1007.04,VALID,0,VALID,76.2347,VALID,0.105969,VALID,23.5966,VALID,124,VALID,0.867969,
2009-11-12, 03:08:05,VALID,1007.03,VALID,0,VALID,76.2575,VALID,0,VALID,23.5966,VALID,144,VALID,0.845703,
2009-11-12, 03:09:05,VALID,1007.03,VALID,0,VALID,76.2728,VALID,0,VALID,23.5771,VALID,126,VALID,0.411719,
2009-11-12, 03:10:05,VALID,1007.01,VALID,0,VALID,76.2804,VALID,0,VALID,23.5771,VALID,132,VALID,0.828906,
2009-11-12, 03:11:05,VALID,1007.04,VALID,0,VALID,76.2575,VALID,0,VALID,23.5966,VALID,132,VALID,0.24375,
2009-11-12, 03:12:05,VALID,1007.01,VALID,0,VALID,76.2804,VALID,0,VALID,23.5771,VALID,123,VALID,0.454688,
2009-11-12, 03:13:05,VALID,1007.03,VALID,0,VALID,76.2804,VALID,0,VALID,23.5753,VALID,120,VALID,0.472266,
2009-11-12, 03:14:05,VALID,1007.02,VALID,0,VALID,76.3033,VALID,0,VALID,23.5966,VALID,118,VALID,0.90625,
2009-11-12, 03:15:05,VALID,1007.01,VALID,0,VALID,76.3185,VALID,0.105969,VALID,23.5753,VALID,162,VALID,0.525391,
2009-11-12, 03:16:05,VALID,1007.07,VALID,0,VALID,76.3185,VALID,0,VALID,23.5771,VALID,124,VALID,1.17031,
2009-11-12, 03:17:05,VALID,1007.07,VALID,0,VALID,76.3185,VALID,0.105969,VALID,23.5771,VALID,144,VALID,1.06953,
2009-11-12, 03:18:05,VALID,1007.11,VALID,0,VALID,76.3338,VALID,0,VALID,23.5753,VALID,114,VALID,0.729297,
2009-11-12, 03:19:05,VALID,1007.14,VALID,0,VALID,76.3414,VALID,0,VALID,23.5966,VALID,134,VALID,0.723828,
2009-11-12, 03:20:05,VALID,1007.16,VALID,0,VALID,76.3338,VALID,0,VALID,23.5966,VALID,131,VALID,0.586719,
2009-11-12, 03:21:05,VALID,1007.18,VALID,0,VALID,76.3414,VALID,0,VALID,23.6161,VALID,119,VALID,0.402734,
2009-11-12, 03:22:05,VALID,1007.25,VALID,0,VALID,76.3414,VALID,0,VALID,23.6161,VALID,102,VALID,0.707031,
2009-11-12, 03:23:05,VALID,1007.25,VALID,0,VALID,76.3338,VALID,0,VALID,23.6161,VALID,133,VALID,0.889844,
2009-11-12, 03:24:05,VALID,1007.3,VALID,0,VALID,76.349,VALID,0,VALID,23.6161,VALID,113,VALID,1.14063,
2009-11-12, 03:25:05,VALID,1007.31,VALID,0,VALID,76.349,VALID,0,VALID,23.6356,VALID,112,VALID,1.18086,
2009-11-12, 03:26:05,VALID,1007.32,VALID,0,VALID,76.3643,VALID,0,VALID,23.6338,VALID,101,VALID,1.60156,
2009-11-12, 03:27:05,VALID,1007.34,VALID,0,VALID,76.3567,VALID,0.105969,VALID,23.6338,VALID,120,VALID,1.28203,
2009-11-12, 03:28:05,VALID,1007.37,VALID,0,VALID,76.349,VALID,0,VALID,23.655,VALID,114,VALID,1.11016,
2009-11-12, 03:29:05,VALID,1007.37,VALID,0,VALID,76.3338,VALID,0,VALID,23.6745,VALID,96,VALID,0.871094,
2009-11-12, 03:30:05,VALID,1007.35,VALID,0,VALID,76.2423,VALID,0,VALID,23.655,VALID,100,VALID,1.15742,
2009-11-12, 03:31:05,VALID,1007.37,VALID,0,VALID,75.9296,VALID,0,VALID,23.655,VALID,113,VALID,0.867578,
2009-11-12, 03:32:05,VALID,1007.36,VALID,0,VALID,75.9678,VALID,0,VALID,23.6338,VALID,94,VALID,0.939062,
2009-11-12, 03:33:05,VALID,1007.37,VALID,0,VALID,75.9449,VALID,0,VALID,23.6745,VALID,131,VALID,1.01328,
2009-11-12, 03:34:05,VALID,1007.39,VALID,0,VALID,75.9754,VALID,0,VALID,23.6356,VALID,138,VALID,1.34063,
2009-11-12, 03:35:05,VALID,1007.4,VALID,0,VALID,75.9906,VALID,0,VALID,23.6356,VALID,126,VALID,0.863281,
2009-11-12, 03:36:05,VALID,1007.43,VALID,0,VALID,76.0135,VALID,0.105969,VALID,23.6356,VALID,109,VALID,0.680859,
2009-11-12, 03:37:05,VALID,1007.43,VALID,0,VALID,76.0211,VALID,0.105969,VALID,23.655,VALID,101,VALID,1.03242,
2009-11-12, 03:38:05,VALID,1007.43,VALID,0,VALID,76.0288,VALID,0,VALID,23.6143,VALID,119,VALID,0.765625,
2009-11-12, 03:39:05,VALID,1007.43,VALID,0,VALID,76.044,VALID,0,VALID,23.6356,VALID,115,VALID,1.01875,
2009-11-12, 03:40:05,VALID,1007.44,VALID,0,VALID,76.0364,VALID,0,VALID,23.6356,VALID,90,VALID,1.32148,